[[{"header":{"parameterUnit":"m.s-1","parameterCategory":1,"la1":30.2991,"la2":30.254,"lo1":-89.0895,"lo2":-89.0444,"dy":0.0017,"dx":0.0017,"nx":28,"ny":28,"refTime":"2023-07-29T21:00:00:Z","depth":0,"parameterNumber":2,"parameterNumberName":"U-component_of_WINDS"},"data":[0,0,0,0,0,0,0,0,0,0,0,0,0,0,0,0,0,0,0,0,0,0,0,0,0,0,0,0,0,0,0,0,0,0,0,0,0,0,0,0,0,0,0,0,0,0,0,0,0,0,0,0,0,0,0,0,0,0,3.0938,3.0942,0,3.1323,3.1327,3.1332,3.1421,3.1418,3.1416,3.1413,3.1815,3.1828,3.1841,0,0,0,0,0,0,0,0,0,0,0,0,0,3.0292,3.0303,3.0938,3.0943,3.0947,3.1322,3.1327,3.1333,3.1421,3.1418,3.1415,3.1412,3.1811,3.1826,3.1842,0,0,0,0,0,0,0,0,0,0,0,0,0,3.0614,3.0307,3.0937,3.1037,3.1049,3.1321,3.1328,3.1334,3.1422,3.1418,3.1414,3.141,3.1805,3.1825,3.1844,3.2046,0,0,3.1905,3.1913,0,0,0,0,0,0,0,0,3.0596,3.0638,3.1017,3.103,3.1045,3.132,3.1247,3.1573,3.1423,3.1281,3.1413,3.1408,3.1654,3.1686,3.1767,3.2065,3.2082,3.1906,3.1918,3.1927,3.1932,0,0,0,0,0,0,0,3.0573,3.0622,3.109,3.1023,3.104,3.1066,3.1107,3.1309,3.1485,3.1293,3.13,3.1344,3.1661,3.1748,3.1777,3.2088,3.1906,3.1923,3.1935,3.1943,3.2579,3.2583,0,0,0,0,0,0,3.0532,3.0602,3.1078,3.1102,3.0806,3.1081,3.1127,3.1236,3.1483,3.1517,3.1347,3.1347,3.1716,3.1754,3.1792,3.2049,3.1927,3.1945,3.1957,3.2574,3.258,3.2585,0,0,0,0,0,0,3.0518,3.0573,3.1063,3.0855,3.0919,3.1096,3.1217,3.1245,3.1332,3.1524,3.1557,3.1403,3.1714,3.1764,3.1983,3.2064,3.1954,3.1972,3.2568,3.2576,3.2582,3.2561,0,0,0,0,0,0,3.0499,3.0568,3.0643,3.0855,3.0929,3.1244,3.1222,3.1256,3.1365,3.1369,3.1585,3.1617,3.1715,3.1953,3.2003,3.2089,3.1987,3.2561,3.2571,3.258,3.2555,3.2567,3.2577,0,0,0,0,0,3.0475,3.0622,3.0646,3.0703,3.1027,3.1248,3.1291,3.1398,3.1371,3.1451,3.1576,3.1611,3.2047,3.1975,3.2032,3.2125,3.2557,3.2568,3.2579,3.255,3.2564,3.2576,0,0,0,0,0,0,3.0416,3.0651,3.0681,3.09,3.1053,3.1263,3.1366,3.1409,3.1575,3.1571,3.1699,3.1748,3.196,3.2065,3.1981,3.2337,3.2302,3.2325,3.226,3.2275,3.2286,3.2256,3.2004,0,0,0,0,0,3.0428,3.0585,3.0784,3.0958,3.1034,3.1186,3.1287,3.1357,3.1522,3.1587,3.1728,3.1889,3.2063,3.2175,3.2345,3.2571,3.2623,3.2664,3.2674,3.2682,3.2701,3.2834,3.2856,3.2622,3.2622,3.2622,0,0,3.0456,3.0604,3.0695,3.095,3.1077,3.1241,3.124,3.1412,3.1537,3.1615,3.183,3.1939,3.2129,3.2353,3.2459,3.2447,3.2777,3.2697,3.2701,3.2717,3.2848,3.287,3.2889,3.263,3.2628,3.2627,0,0,3.0589,3.0715,3.0876,3.1004,3.1196,3.1298,3.1336,3.1541,3.1616,3.1835,3.1898,3.205,3.2345,3.2479,3.2586,3.2776,3.2817,3.2828,3.2884,3.3012,3.303,3.3047,3.3119,3.3143,3.2846,3.2846,3.2846,0,3.06,3.0845,3.0954,3.1125,3.1238,3.1315,3.1482,3.1602,3.1841,3.1919,3.1901,3.2278,3.241,3.2669,3.2716,3.2799,3.2851,3.2804,3.3018,3.3037,3.3054,3.3124,3.315,3.2847,3.2847,3.2847,3.2847,0,3.0851,3.1021,3.1129,3.1356,3.1481,3.1649,3.1788,3.1903,3.1963,3.2068,3.2293,3.2455,3.2662,3.2729,3.2789,3.3,3.2986,3.2992,3.2959,3.3075,3.3143,3.317,3.2847,3.2847,3.2847,3.2847,0,0,3.0955,3.1243,3.1281,3.1388,3.1608,3.1744,3.1918,3.2119,3.2216,3.238,3.2533,3.2783,3.2792,3.2913,3.299,3.3102,3.3248,3.3095,3.3102,3.312,3.3494,3.349,3.3518,3.3276,3.3281,3.3286,3.348,0,3.1117,3.1427,3.1533,3.1792,3.1954,3.2032,3.2185,3.2339,3.2443,3.2599,3.2716,3.2893,3.2888,3.2962,3.3076,3.3205,3.3325,3.3193,3.3423,3.343,3.3374,3.3553,3.3548,3.3723,3.3506,3.3511,3.3514,0,3.1347,3.1513,3.1787,3.1991,3.2063,3.2198,3.2394,3.254,3.2719,3.2788,3.2925,3.2995,3.3186,3.3142,3.3409,3.3317,3.3418,3.3496,3.3506,3.3533,3.3479,3.3587,3.3781,3.3808,3.3557,3.3553,3.355,0,3.1399,3.1692,3.1895,3.1983,3.2226,3.232,3.2426,3.26,3.2716,3.2889,3.2966,3.3159,3.3265,3.3415,3.3537,3.3493,3.3796,3.376,3.3861,3.3859,3.3922,3.3916,3.4136,3.3983,3.3983,3.3982,3.3982,0,3.157,3.1736,3.1922,3.2047,3.2237,3.236,3.2546,3.2657,3.2813,3.2965,3.3046,3.3187,3.3339,3.3502,3.3599,3.3809,3.3855,3.392,3.3944,3.3913,3.3906,3.3982,3.3974,3.399,3.3988,3.3987,3.3985,0,3.166,3.1791,3.2018,3.223,3.2288,3.2418,3.2602,3.273,3.2838,3.303,3.3082,3.3254,3.3451,3.3588,3.384,3.3906,3.4134,3.4155,3.4072,3.4084,3.4179,3.4169,3.4458,3.4504,3.4317,3.4318,3.4319,0,3.1761,3.189,3.2116,3.2223,3.2328,3.2499,3.2618,3.2746,3.2867,3.3084,3.3187,3.3388,3.3556,3.3868,3.4018,3.4213,3.4242,3.433,3.4272,3.4239,3.4247,3.4239,3.4255,3.4338,3.434,3.4341,3.4342,0,3.1928,3.1987,3.2153,3.2345,3.2484,3.2641,3.2799,3.2883,3.3041,3.3174,3.3375,3.3505,3.3764,3.3966,3.4176,3.4291,3.4345,3.4359,3.4394,3.4365,3.4312,3.4346,3.4099,3.4352,3.4351,3.435,3.435,3.4349,3.2029,3.2149,3.2328,3.2513,3.2645,3.2793,3.2924,3.305,3.3219,3.3438,3.3505,3.3715,3.3898,3.4186,3.4303,3.4473,3.4467,3.4516,3.4529,3.4539,3.454,3.4284,3.4512,3.4511,3.4511,3.4511,3.4511,0,3.2203,3.2322,3.249,3.2709,3.2856,3.2892,3.3071,3.3193,3.3376,3.354,3.3704,3.3938,3.4135,3.4302,3.4507,3.4611,3.4642,3.4661,3.4656,3.4682,3.4532,3.4483,3.4633,3.4633,3.4633,3.4633,3.4633,3.4633,3.231,3.2517,3.2598,3.2874,3.2994,3.3199,3.3299,3.3437,3.3569,3.3826,3.399,3.4096,3.4264,3.4483,3.4667,3.4712,3.4785,3.4799,3.4849,3.4706,3.4692,3.4679,3.4634,3.4813,3.4813,3.4987,3.4988,3.4989]},{"header":{"parameterUnit":"m.s-1","parameterCategory":1,"la1":30.2991,"la2":30.254,"lo1":-89.0895,"lo2":-89.0444,"dy":0.0017,"dx":0.0017,"nx":28,"ny":28,"refTime":"2023-07-29T21:00:00:Z","depth":0,"parameterNumber":3,"parameterNumberName":"V-component_of_WINDS"},"data":[0,0,0,0,0,0,0,0,0,0,0,0,0,0,0,0,0,0,0,0,0,0,0,0,0,0,0,0,0,0,0,0,0,0,0,0,0,0,0,0,0,0,0,0,0,0,0,0,0,0,0,0,0,0,0,0,0,0,4.2947,4.2948,0,4.3027,4.3028,4.3029,4.3037,4.3036,4.3035,4.3035,4.3107,4.3109,4.3112,0,0,0,0,0,0,0,0,0,0,0,0,0,4.2792,4.2795,4.2947,4.2948,4.2949,4.3027,4.3028,4.3029,4.3037,4.3036,4.3035,4.3034,4.3106,4.3109,4.3112,0,0,0,0,0,0,0,0,0,0,0,0,0,4.2864,4.2796,4.2947,4.2963,4.2965,4.3027,4.3028,4.3029,4.3037,4.3036,4.3035,4.3034,4.3105,4.3109,4.3113,4.3161,0,0,4.3125,4.3127,0,0,0,0,0,0,0,0,4.286,4.287,4.2959,4.2962,4.2964,4.3021,4.3,4.3073,4.3038,4.301,4.3035,4.3033,4.3079,4.3085,4.3102,4.3164,4.3167,4.3125,4.3128,4.3129,4.313,0,0,0,0,0,0,0,4.2855,4.2866,4.2978,4.2961,4.2964,4.2963,4.2972,4.3014,4.3049,4.3012,4.3013,4.3023,4.308,4.3098,4.3104,4.3168,4.3125,4.3129,4.3131,4.3133,4.3273,4.3274,0,0,0,0,0,0,4.2848,4.2862,4.2976,4.2981,4.2909,4.2967,4.2977,4.3004,4.3049,4.3055,4.3024,4.3023,4.3092,4.3099,4.3106,4.3164,4.3129,4.3133,4.3135,4.3271,4.3273,4.3274,0,0,0,0,0,0,4.2845,4.2858,4.2973,4.2922,4.2936,4.2971,4.3001,4.3006,4.3025,4.3058,4.3063,4.3036,4.3091,4.3101,4.3148,4.3167,4.3135,4.3138,4.327,4.3272,4.3274,4.3282,0,0,0,0,0,0,4.2841,4.2857,4.2878,4.2922,4.2939,4.3015,4.3002,4.3008,4.3033,4.3032,4.3071,4.3077,4.3091,4.3142,4.3151,4.3172,4.3142,4.3268,4.3271,4.3273,4.328,4.3284,4.3287,0,0,0,0,0,4.2835,4.2875,4.2879,4.2893,4.2966,4.3016,4.3026,4.3044,4.3034,4.3054,4.3075,4.3075,4.3164,4.3146,4.3158,4.3179,4.3267,4.327,4.3273,4.3278,4.3283,4.3287,0,0,0,0,0,0,4.2828,4.2881,4.2886,4.2943,4.2975,4.3018,4.3043,4.3049,4.3082,4.308,4.3099,4.3107,4.3153,4.3171,4.3151,4.3228,4.3214,4.3219,4.3214,4.3219,4.3223,4.3216,4.3145,0,0,0,0,0,4.2834,4.2874,4.2917,4.2962,4.2979,4.3008,4.3031,4.3043,4.3076,4.3089,4.3114,4.3143,4.3178,4.32,4.3233,4.3283,4.329,4.3304,4.3307,4.331,4.3314,4.334,4.3345,4.3284,4.3284,4.3284,0,0,4.2845,4.2879,4.2902,4.2962,4.2989,4.3026,4.302,4.3059,4.3086,4.3094,4.314,4.3159,4.3194,4.3242,4.3265,4.3258,4.3333,4.3314,4.3316,4.3318,4.3343,4.3349,4.3354,4.3286,4.3286,4.3285,0,0,4.2884,4.2915,4.2956,4.2984,4.3026,4.3045,4.3055,4.3098,4.3112,4.3159,4.3165,4.3196,4.3256,4.3279,4.3299,4.3349,4.3349,4.3359,4.3377,4.3402,4.3407,4.3411,4.3426,4.3432,4.3363,4.3363,4.3363,0,4.2891,4.2951,4.2975,4.3016,4.304,4.3053,4.3092,4.3117,4.3166,4.3182,4.3175,4.325,4.3274,4.3327,4.334,4.3356,4.3365,4.3353,4.3405,4.3409,4.3414,4.3428,4.3434,4.3363,4.3363,4.3363,4.3363,0,4.2957,4.2998,4.3026,4.3077,4.3105,4.3145,4.3172,4.3197,4.3206,4.3226,4.3273,4.3302,4.3342,4.3356,4.3364,4.341,4.3405,4.3402,4.3387,4.342,4.3434,4.344,4.3365,4.3364,4.3364,4.3364,0,0,4.2991,4.3057,4.3067,4.309,4.3138,4.3168,4.3208,4.325,4.327,4.3304,4.3335,4.3386,4.3383,4.3406,4.3417,4.344,4.3474,4.3433,4.3434,4.3438,4.3524,4.3525,4.3531,4.3476,4.3477,4.3478,4.3521,0,4.3034,4.3108,4.3131,4.3192,4.3229,4.3242,4.3276,4.3307,4.3326,4.3358,4.3378,4.3413,4.3408,4.3422,4.3445,4.3465,4.3491,4.3463,4.3502,4.3503,4.3491,4.3539,4.354,4.3579,4.3527,4.3528,4.3528,0,4.3093,4.3132,4.3197,4.3241,4.3257,4.3288,4.3328,4.3359,4.3394,4.3406,4.3433,4.3442,4.3481,4.3467,4.3518,4.3498,4.3516,4.3528,4.353,4.3533,4.3516,4.354,4.3592,4.3596,4.3538,4.3537,4.3536,0,4.3109,4.3178,4.3225,4.3245,4.3297,4.3318,4.334,4.3375,4.3398,4.3432,4.3447,4.3484,4.3504,4.3531,4.3549,4.3538,4.3598,4.3586,4.3606,4.3606,4.3616,4.3615,4.3669,4.3632,4.3632,4.3632,4.3631,0,4.3153,4.3192,4.3234,4.3263,4.3306,4.3331,4.3372,4.3394,4.3424,4.3455,4.3468,4.3496,4.352,4.3551,4.3565,4.3604,4.3613,4.3622,4.3625,4.362,4.3618,4.363,4.3627,4.3633,4.3633,4.3632,4.3632,0,4.3178,4.3208,4.326,4.3307,4.3319,4.3349,4.3387,4.3414,4.3435,4.3474,4.3484,4.3515,4.3552,4.3574,4.3619,4.3629,4.3672,4.3675,4.3661,4.3662,4.368,4.3677,4.3741,4.375,4.3709,4.3709,4.371,0,4.3203,4.3233,4.3284,4.3308,4.3332,4.3369,4.3394,4.342,4.3445,4.3487,4.3508,4.3547,4.3579,4.3636,4.3661,4.3695,4.3698,4.3718,4.3702,4.3696,4.3695,4.3693,4.3695,4.3719,4.372,4.372,4.372,0,4.3243,4.3257,4.3295,4.3338,4.3369,4.3403,4.3436,4.3454,4.3484,4.3511,4.3551,4.3576,4.3624,4.3661,4.3698,4.3717,4.3722,4.3725,4.3731,4.3725,4.3715,4.3719,4.3666,4.3723,4.3723,4.3722,4.3722,4.3722,4.3267,4.3295,4.3336,4.3377,4.3406,4.3437,4.3465,4.3491,4.3525,4.3569,4.3581,4.3622,4.3655,4.3706,4.3726,4.3756,4.3752,4.3762,4.3764,4.3765,4.3765,4.3713,4.3763,4.3763,4.3763,4.3763,4.3763,0,4.3306,4.3334,4.3372,4.3421,4.3453,4.346,4.3498,4.3522,4.356,4.3592,4.3624,4.3669,4.3705,4.3733,4.377,4.3788,4.3791,4.3796,4.3794,4.3798,4.3767,4.3757,4.3793,4.3793,4.3793,4.3793,4.3793,4.3793,4.3331,4.3378,4.3396,4.3457,4.3483,4.3526,4.3547,4.3575,4.3601,4.3652,4.3683,4.3703,4.3733,4.3771,4.3804,4.3811,4.3822,4.3827,4.3834,4.3804,4.38,4.3797,4.3788,4.383,4.383,4.3862,4.3863,4.3863]}]]